Malaysia Virtual Airlines Airport Information Service

Jakarta / Soekarno-Hatta

ICAO: WIII Country: Indonesia
Latitude: -6.12557 Longitude: 106.656
Latest Arrival : AK351 (WMKK-WIII) Latest Departure : AK352 (WIII-WMKK)


WX CaptureLIVE
Data provided by noaa.gov | Fetched at 04:57:07

METAR : WIII 290430Z 28011KT 9999 BKN020 31/25 Q1008 NOSIG

TAF : WIII 282300Z 2900/3006 25015KT 9000 SCT020 TEMPO 2907/2911 5000 -TSRA FEW018CB BECMG 2913/2915 26007KT 6000 NSW


Runway Data for WIII
Data provided by openaviationdata.com

Runway ID Mag Var Hdg Length Elevation Surface ILS Freq ILS Id ILS Slope
07L 0 68° 11803 ft 34 ft Concrete 111.5 ICHL 3
07R 0 68° 12011 ft 34 ft Concrete 110.5 ICHR 3
25L 0 248° 12011 ft 34 ft Concrete 111.1 ICGL 3
25R 0 248° 11803 ft 34 ft Concrete 110.9 ICGR 3

Jakarta / Soekarno-Hatta, Indonesia
Use only for reference purposes



Not for navigational purposes.